Regional Weather Roundup
Issued by NWS

Home | Current Version | Previous Version | Text Only | Print | Product List | Glossary Off
Versions: 1 2 3 4 5 6 7 8 9 10 11 12 13 14 15 16 17 18 19 20 21 22 23 24 25 26 27 28 29 30 31 32 33 34 35 36 37 38 39 40 41 42 43 44 45 46 47 48 49 50

179
ASUS43 KIND 261509
RWRIN

WEATHER ROUNDUP FOR INDIANA
NATIONAL WEATHER SERVICE INDIANAPOLIS IN
1100 AM EDT WED JUL 26 2017

NOTE: "FAIR" INDICATES FEW OR NO CLOUDS BELOW 12,000 FEET WITH NO
SIGNIFICANT WEATHER AND/OR OBSTRUCTIONS TO VISIBILITY.

* - STATION DOES NOT REPORT WEATHER SUCH AS PRECIPITATION OR FOG.

+ - STATION NOT QUALITY CONTROLLED BY THE NATIONAL WEATHER SERVICE.
    USE DATA WITH CAUTION...ESPECIALLY DEWPOINT AND RELATIVE
    HUMIDITY OBSERVATIONS.

INZ001>003-010>013-019-020-261600-
NORTHWEST INDIANA

CITY           SKY/WX    TMP DP  RH WIND       PRES   REMARKS
GARY /AIRPORT/ PTSUNNY   77  63  61 S8        30.10F
KNOX *+        MOSUNNY   72  64  78 S6        30.12S
LA PORTE +     CLOUDY    72  65  78 SW6       30.13R
MICHIGAN CITY+ CLOUDY    73  63  68 S6        30.12R
MONTICELLO +   PTSUNNY   73  66  79 E5        30.11F
RENSSELAER +   MOSUNNY   73  64  73 SE7       30.11S
VALPARAISO     PTSUNNY   74  66  76 S8        30.12S

$$

LMZ046-743>745-261600-
SOUTHERN LAKE MICHIGAN

STATION/POSITION TIME  TEMP    WIND        PRES    WAVE
                       AIR SEA DIR/SP/G            HT
                 (UTC) (F)     (DEG/KT/KT) (MB)    (FT)
BURNS HARBOR     1440   74     180/  9/ 13 1019.6S
MICHIGAN CITY    1440   72     160/ 10/ 12   N/A
5NW MICH CITY    1500   72 74  190/ 10/ 12   N/A     1

$$

INZ004-005-014>016-021>024-261600-
NORTH CENTRAL INDIANA

CITY           SKY/WX    TMP DP  RH WIND       PRES   REMARKS
ELKHART        CLOUDY    73  63  68 W5        30.13S
GOSHEN         CLOUDY    73  61  65 S6        30.13F
LOGANSPORT +   MOSUNNY   73  64  73 CALM      30.14S
PERU/GRISSOM   MOSUNNY   74  66  76 SE7       30.13S
ROCHESTER +    MOSUNNY   77  64  65 S6        30.13F
SOUTH BEND     MOSUNNY   73  64  73 SW8       30.12F
WARSAW +       MOSUNNY   72  63  73 S5        30.13F

$$

INZ006>009-017-018-025>027-261600-
NORTHEAST INDIANA

CITY           SKY/WX    TMP DP  RH WIND       PRES   REMARKS
AUBURN +       PTSUNNY   73  59  60 SE6       30.15F
FORT WAYNE     PTSUNNY   74  63  68 VRB7      30.14F
HUNTINGTON +   MOSUNNY   73  64  74 S6        30.14F
KENDALLVILLE + MOSUNNY   73  62  70 S5        30.16R

$$

INZ028-029-035-036-043>045-051>053-261600-
WEST CENTRAL INDIANA

CITY           SKY/WX    TMP DP  RH WIND       PRES   REMARKS
GREENCASTLE +  CLOUDY    75  68  78 SE3       30.12F
LAFAYETTE      MOSUNNY   74  67  78 VRB3      30.11S
TERRE HAUTE    MOSUNNY   77  67  71 SE7       30.10F

$$

INZ030>032-037>040-046>048-054>057-064-065-261600-
CENTRAL INDIANA

CITY           SKY/WX    TMP DP  RH WIND       PRES   REMARKS
ANDERSON       SUNNY     75  64  69 MISG      30.15
CP ATTERBURY + SUNNY     75  64  69 S6        30.14F
COLUMBUS       MOSUNNY   73  63  68 S5        30.14S
FRANKFORT +    MOSUNNY   78  68  73 CALM      30.14S
GREENWOOD *+   SUNNY    N/A N/A N/A SE5       30.14F
INDIANAPOLIS   PTSUNNY   75  65  70 SE8       30.12F
-EAGLE CREEK   SUNNY     76  63  64 SE7       30.12F
KOKOMO +       MOSUNNY   73  66  78 S7        30.15F
MARION +       SUNNY     72  64  78 S7        30.15F
MT COMFORT *+  SUNNY     73  64  73 S6        30.14S
SHELBYVILLE    SUNNY     76  64  66 SE5       30.13F
ZIONSVILLE +   MOSUNNY   74  64  70 SE6       30.14S

$$

INZ033-034-041-042-049-050-058-059-261600-
EAST CENTRAL INDIANA

CITY           SKY/WX    TMP DP  RH WIND       PRES   REMARKS
MUNCIE         SUNNY     76  63  64 CALM      30.15F
RICHMOND +     SUNNY     70  63  78 CALM      30.17F

$$

INZ060-061-067>069-081>083-085>088-261600-
SOUTHWEST INDIANA

CITY           SKY/WX    TMP DP  RH WIND       PRES   REMARKS
EVANSVILLE     PTSUNNY   74  70  87 SE5       30.09S
HUNTINGBURG *+ PTSUNNY   81  71  71 VRB6      30.11R

$$

INZ062-063-066-070>080-084-089>092-261600-
SOUTH CENTRAL AND SOUTHEAST INDIANA

CITY           SKY/WX    TMP DP  RH WIND       PRES   REMARKS
BEDFORD +      SUNNY     77  66  69 SE3       30.12S
BLOOMINGTON    SUNNY     78  65  63 S6        30.12F
MADISON *+     SUNNY     77  63  61 SE5       30.16S
NORTH VERNON + SUNNY     75  64  69 CALM      30.15F
SEYMOUR +      SUNNY     77  66  69 SE5       30.13F

$$





USA.gov is the U.S. government's official web portal to all federal, state and local government web resources and services.